METEOR PRIRODA

Last updated on Wed Jul 02 2025 00:02:13 GMT+0000 (Coordinated Universal Time)

1 12585U 81065A 25182.59007675 .00039275 00000+0 33051-3 0 9998 2 12585 97.4852 235.5857 0007102 121.1392 239.0567 15.69738299404786
UTC large
Height (km)
Speed (km/s)
/
Latitude / Longitude
Inclination (degrees)
Orbital Period (minutes)
Azimuth
Elevation
Range (km)
Doppler Factor

Next 0 passes for location: London (51.5072 / 0.1276)

Sorry there are no passes over London.